CAPE
114 380 1513 1466 1450 1153 1302 1216 937 1098 1290 1201 1104 1062 970 789 574 392 171 0 0 0 0 9 204 641 624 777 589 684 442 684 512 427 752 383 52 0 5 100 236 153 20
821 802 1033 1608 1479 1548 1434 1164 1083 1383 1243 1104 1030 899 722 530 401 315 123 0 0 0 0 2 93 326 485 200 573 454 300 395 436 319 265 133 63 0 0 0 62 101 195
168 835 1551 1825 1631 1639 1524 1481 1344 1362 1079 853 821 709 490 430 435 347 94 23 22 36 234 677 664 534 517 213 251 297 263 300 347 135 94 13 3 20 0 0 0 0 64
294 561 805 1678 1849 1676 1432 1162 1270 1359 1278 890 558 515 435 495 582 526 206 83 267 199 490 822 652 486 531 171 8 14 160 167 169 206 103 46 93 293 3 0 0 0 0
391 518 585 570 560 625 1092 1421 1493 1302 1159 1214 1075 661 547 609 663 704 509 176 310 708 807 715 731 504 360 302 7 0 25 165 132 24 0 0 134 409 16 0 0 0 0
60 250 398 443 508 519 497 414 394 666 1225 1327 1202 1256 1059 967 895 908 1088 745 525 658 702 833 935 694 469 344 309 228 168 85 71 0 0 0 116 572 151 3 4 0 0
0 0 2 62 158 189 229 294 357 345 300 279 804 1278 1180 1184 1186 1239 1313 1285 1178 1067 714 733 906 1029 647 357 206 254 663 423 160 6 0 23 157 791 264 16 0 0 0
0 0 0 0 0 0 0 0 0 44 124 288 298 208 492 991 1190 1178 1322 1330 1364 1123 1081 883 758 1041 1167 621 226 190 483 392 64 0 0 5 179 773 427 115 0 0 0
0 0 0 0 0 0 0 0 0 0 0 0 0 9 64 158 158 555 1228 1368 1341 1385 1383 1575 1414 1338 1452 1143 820 407 203 178 196 13 0 0 103 520 526 210 72 0 0
0 0 0 0 0 0 0 0 0 0 0 0 0 0 0 0 0 26 216 694 1146 1057 1212 1276 1330 1445 1409 1307 1073 597 91 14 84 86 4 0 0 19 711 315 133 69 13
0 0 0 0 0 0 0 0 0 0 0 0 0 0 0 0 0 0 0 115 460 666 1023 1106 1017 867 722 753 746 635 334 62 0 6 12 0 5 12 1145 805 448 144 91
0 0 0 0 0 0 0 0 0 0 0 0 0 0 0 0 0 0 0 0 0 6 319 795 970 786 539 372 409 420 390 246 88 18 1 0 56 88 1271 1244 900 693 659
0 0 0 0 0 0 0 0 0 0 0 0 0 0 0 0 0 0 0 0 0 0 25 287 360 456 542 448 383 279 177 242 176 99 64 18 42 161 1163 1385 1070 885 714
0 0 0 0 0 0 0 0 0 0 0 0 0 0 0 0 0 0 0 0 0 0 0 0 23 163 361 452 385 410 335 226 189 186 108 36 0 351 1380 1427 1179 987 815
0 0 0 0 0 0 0 0 0 0 0 0 0 0 0 0 0 0 0 0 0 0 0 0 0 0 26 175 262 321 287 263 322 396 313 257 62 178 963 1342 1140 862 692
0 0 0 0 0 0 0 0 0 0 0 0 0 0 0 0 0 0 0 0 0 0 0 0 0 0 0 6 109 138 145 147 197 222 258 229 214 230 632 939 1213 1182 1047
0 0 0 0 0 0 0 0 0 0 0 0 0 0 0 0 0 0 0 0 0 0 0 0 0 0 0 0 0 2 54 106 126 98 111 188 291 270 261 359 888 972 1003
0 0 0 0 0 0 0 0 0 0 0 0 0 0 0 0 0 0 0 0 0 0 0 0 0 0 0 0 0 0 0 0 57 94 141 206 276 306 308 314 410 785 953
0 0 0 0 0 0 0 0 0 0 0 0 0 0 0 0 0 0 0 0 0 0 0 0 0 0 0 0 0 0 0 0 0 18 46 137 242 261 277 300 277 194 357
0 0 0 0 0 0 0 0 0 0 0 0 0 0 0 0 0 0 0 0 0 0 0 0 0 0 0 0 0 0 0 0 0 0 0 0 61 160 148 231 346 414 403
0 0 0 0 0 0 0 0 0 0 0 0 0 0 0 0 0 0 0 0 0 0 0 0 0 6 0 5 3 0 0 0 0 0 0 0 0 0 11 50 73 178 155
0 0 0 0 0 0 0 0 0 0 0 0 0 0 0 0 0 0 0 0 0 0 0 0 0 0 0 0 0 0 5 0 0 0 4 12 7 5 7 11 37 48 49
0 0 0 0 0 0 0 0 0 0 0 0 0 0 0 0 0 0 0 0 0 0 0 0 0 0 0 0 0 0 19 13 1 0 1 6 12 17 19 12 6 12 4
0 0 0 0 0 0 0 0 0 0 0 0 0 0 0 0 0 0 0 0 0 0 0 0 0 0 0 0 0 0 0 0 0 0 0 0 0 2 10 15 0 0 0
0 0 0 0 0 0 0 0 0 0 0 0 0 0 0 0 0 0 0 0 0 0 0 0 0 0 0 0 0 0 0 0 0 0 0 0 0 0 0 0 0 0 0
0 0 0 0 0 0 0 0 0 0 0 0 0 0 0 0 0 0 0 0 0 0 0 0 0 0 0 0 0 0 0 0 0 0 0 0 0 0 0 0 0 0 0
CIN
-145 -73 -20 -18 -9 -9 -1 -0 -6 -3 -0 -0 -0 -1 -2 -6 -37 -92 -199 -0 -0 -0 -0 -352 -161 -59 -70 -48 -77 -65 -119 -63 -98 -112 -36 -128 -342 -0 -344 -254 -157 -176 -414
-21 -26 -30 -7 -7 -1 -1 -1 -2 -1 -1 -1 -1 -8 -20 -57 -94 -127 -226 -0 -0 -0 -0 -193 -211 -99 -69 -159 -61 -86 -135 -115 -115 -149 -176 -246 -310 -0 -0 -46 -269 -226 -147
-138 -27 -9 -2 -2 -1 -1 -1 -2 -1 -3 -7 -16 -35 -79 -97 -86 -114 -246 -315 -301 -268 -117 -10 -10 -25 -37 -124 -118 -107 -126 -124 -122 -221 -247 -364 -430 -353 -0 -0 -0 -0 -256
-107 -47 -36 -1 -0 -0 -1 -2 -1 -1 -1 -6 -55 -69 -98 -71 -47 -52 -181 -240 -108 -131 -27 -0 -2 -18 -12 -133 -297 -283 -148 -152 -174 -180 -249 -284 -214 -122 -150 -0 -0 -0 -0
-82 -50 -38 -39 -48 -41 -11 -1 -1 -2 -1 -1 -2 -23 -43 -30 -21 -11 -40 -184 -86 -0 -1 -0 -1 -3 -24 -43 -197 -0 -135 -125 -171 -247 -0 -0 -181 -103 -123 -0 -0 -0 -0
-279 -151 -87 -79 -65 -59 -58 -88 -109 -36 -3 -1 -1 -1 -1 -1 -0 -0 -0 -3 -24 -4 -1 -0 -0 -1 -3 -16 -21 -50 -88 -147 -181 -0 -0 -0 -145 -57 -196 -16 -61 -0 -0
-0 -0 -269 -291 -227 -210 -187 -140 -110 -110 -138 -144 -25 -0 -0 -0 -0 -0 -0 -0 -0 -1 -3 -1 -0 -0 -1 -9 -46 -23 -0 -6 -87 -199 -0 -183 -146 -8 -115 -317 -0 -0 -0
-0 -0 -0 -0 -0 -0 -0 -0 -0 -124 -225 -114 -105 -143 -54 -3 -0 -0 -1 -1 -0 -0 -0 -0 -0 -0 -0 -0 -39 -50 -0 -1 -108 -0 -0 -6 -117 -10 -43 -191 -0 -0 -0
-0 -0 -0 -0 -0 -0 -0 -0 -0 -0 -0 -0 -0 -60 -247 -128 -117 -18 -1 -3 -1 -0 -0 -0 -0 -0 -0 -0 -0 -4 -35 -40 -18 -132 -0 -0 -131 -6 -11 -73 -170 -0 -0
-0 -0 -0 -0 -0 -0 -0 -0 -0 -0 -0 -0 -0 -0 -0 -0 -0 -203 -48 -17 -7 -8 -1 -0 -0 -0 -0 -0 -0 -4 -91 -204 -79 -81 -96 -0 -0 -171 -0 -14 -61 -105 -184
-0 -0 -0 -0 -0 -0 -0 -0 -0 -0 -0 -0 -0 -0 -0 -0 -0 -0 -0 -84 -11 -19 -10 -5 -4 -7 -11 -6 -2 -2 -6 -82 -0 -141 -151 -0 -189 -56 -0 -9 -17 -26 -35
-0 -0 -0 -0 -0 -0 -0 -0 -0 -0 -0 -0 -0 -0 -0 -0 -0 -0 -0 -0 -0 -16 -48 -18 -14 -16 -14 -19 -19 -12 -5 -22 -53 -86 -16 -0 -75 -34 -0 -4 -15 -12 -1
-0 -0 -0 -0 -0 -0 -0 -0 -0 -0 -0 -0 -0 -0 -0 -0 -0 -0 -0 -0 -0 -0 -94 -50 -26 -24 -17 -16 -19 -25 -40 -28 -33 -45 -50 -42 -88 -20 -0 -3 -14 -16 -11
-0 -0 -0 -0 -0 -0 -0 -0 -0 -0 -0 -0 -0 -0 -0 -0 -0 -0 -0 -0 -0 -0 -0 -0 -28 -68 -17 -11 -17 -10 -4 -15 -39 -41 -33 -39 -0 -21 -1 -3 -14 -17 -14
-0 -0 -0 -0 -0 -0 -0 -0 -0 -0 -0 -0 -0 -0 -0 -0 -0 -0 -0 -0 -0 -0 -0 -0 -0 -0 -67 -65 -16 -8 -12 -5 -19 -10 -19 -11 -25 -74 -14 -7 -10 -19 -20
-0 -0 -0 -0 -0 -0 -0 -0 -0 -0 -0 -0 -0 -0 -0 -0 -0 -0 -0 -0 -0 -0 -0 -0 -0 -0 -0 -54 -92 -50 -45 -61 -47 -21 -15 -23 -14 -17 -40 -8 -3 -4 -7
-0 -0 -0 -0 -0 -0 -0 -0 -0 -0 -0 -0 -0 -0 -0 -0 -0 -0 -0 -0 -0 -0 -0 -0 -0 -0 -0 -0 -0 -6 -130 -76 -66 -92 -68 -25 -18 -18 -12 -48 -6 -3 -5
-0 -0 -0 -0 -0 -0 -0 -0 -0 -0 -0 -0 -0 -0 -0 -0 -0 -0 -0 -0 -0 -0 -0 -0 -0 -0 -0 -0 -0 -0 -0 -0 -103 -84 -45 -18 -15 -23 -22 -14 -45 -16 -4
-0 -0 -0 -0 -0 -0 -0 -0 -0 -0 -0 -0 -0 -0 -0 -0 -0 -0 -0 -0 -0 -0 -0 -0 -0 -0 -0 -0 -0 -0 -0 -0 -0 -31 -31 -30 -11 -13 -14 -17 -17 -25 -26
-0 -0 -0 -0 -0 -0 -0 -0 -0 -0 -0 -0 -0 -0 -0 -0 -0 -0 -0 -0 -0 -0 -0 -0 -1 -0 -0 -0 -0 -0 -0 -0 -0 -0 -0 -0 -47 -33 -39 -18 -17 -10 -6
-0 -0 -0 -0 -0 -0 -0 -0 -0 -0 -0 -0 -0 -0 -0 -0 -0 -0 -0 -0 -0 -0 -0 -0 -0 -6 -0 -8 -6 -0 -0 -0 -0 -0 -0 -0 -0 -16 -46 -25 -13 -16 -25
-0 -0 -0 -0 -0 -0 -0 -0 -0 -0 -0 -0 -0 -0 -0 -0 -0 -0 -0 -0 -0 -0 -0 -0 -0 -0 -0 -0 -0 -0 -2 -0 -0 -0 -8 -3 -1 -0 -0 -56 -40 -18 -30
-0 -0 -0 -0 -0 -0 -0 -0 -0 -0 -0 -0 -0 -0 -0 -0 -0 -0 -0 -0 -0 -0 -0 -0 -0 -0 -0 -0 -0 -0 -0 -1 -3 -0 -7 -14 -0 -1 -1 -0 -10 -2 -9
-0 -0 -0 -0 -0 -0 -0 -0 -0 -0 -0 -0 -0 -0 -0 -0 -0 -0 -0 -0 -0 -0 -0 -0 -0 -0 -0 -0 -0 -0 -0 -0 -0 -0 -0 -0 -0 -1 -0 -0 -5 -0 -1
-0 -0 -0 -0 -0 -0 -0 -0 -0 -0 -0 -0 -0 -0 -0 -0 -0 -0 -0 -0 -0 -0 -0 -0 -0 -0 -0 -0 -0 -0 -0 -0 -0 -0 -0 -0 -0 -0 -0 -0 -0 -0 -0
-0 -0 -0 -0 -0 -0 -0 -0 -0 -0 -0 -0 -0 -0 -0 -0 -0 -0 -0 -0 -0 -0 -0 -0 -0 -0 -0 -0 -0 -0 -0 -0 -0 -0 -0 -0 -0 -0 -0 -0 -0 -0 -0
Wind_Speed
5 5 5 8 9 7 6 8 8 9 8 9 10 12 15 16 16 16 15 nan nan nan nan nan 15 16 15 16 16 15 13 14 17 19 20 18 nan nan nan 17 14 10 nan
13 9 7 7 8 8 8 8 9 8 8 8 9 8 7 9 13 15 16 nan nan nan nan nan nan 14 17 20 19 16 15 14 14 15 17 17 nan nan nan nan nan 17 18
17 16 13 11 9 9 9 10 11 10 9 8 8 8 9 10 10 9 nan nan nan nan 19 14 19 19 18 18 18 19 19 16 13 11 nan nan nan nan nan nan nan nan nan
17 13 14 19 17 14 11 9 9 9 10 11 10 10 9 9 9 11 11 nan 10 10 12 18 24 24 22 20 nan nan 18 17 14 12 12 nan nan 16 nan nan nan nan nan
15 12 15 19 19 19 18 17 15 11 9 11 12 12 12 11 11 11 11 11 11 11 13 14 16 17 20 23 nan nan nan 19 16 nan nan nan 15 18 nan nan nan nan nan
nan 13 15 19 20 20 20 19 19 19 18 16 15 15 15 15 14 14 14 14 13 12 12 13 13 16 16 15 16 19 22 nan nan nan nan nan 20 24 24 nan nan nan nan
nan nan nan nan 20 21 22 22 21 21 21 20 19 20 18 17 17 18 19 19 18 16 15 15 15 15 15 15 14 14 15 20 21 nan nan nan 25 29 27 nan nan nan nan
nan nan nan nan nan nan nan nan nan nan 22 23 22 22 22 21 21 21 23 24 23 21 19 18 17 18 19 19 17 17 17 18 nan nan nan nan 20 28 30 30 nan nan nan
nan nan nan nan nan nan nan nan nan nan nan nan nan nan nan 23 22 21 23 24 26 26 24 23 22 21 22 23 23 23 21 21 25 nan nan nan 20 19 26 27 nan nan nan
nan nan nan nan nan nan nan nan nan nan nan nan nan nan nan nan nan nan 23 26 25 25 26 26 25 25 25 26 27 28 nan nan nan nan nan nan nan nan 20 27 27 nan nan
nan nan nan nan nan nan nan nan nan nan nan nan nan nan nan nan nan nan nan 27 28 24 21 21 22 23 25 27 28 31 31 nan nan nan nan nan nan nan 24 29 28 26 nan
nan nan nan nan nan nan nan nan nan nan nan nan nan nan nan nan nan nan nan nan nan nan 17 15 15 17 20 25 25 23 28 30 nan nan nan nan nan nan 27 32 33 30 27
nan nan nan nan nan nan nan nan nan nan nan nan nan nan nan nan nan nan nan nan nan nan nan 26 25 26 27 29 27 27 28 29 28 nan nan nan nan 22 27 33 36 34 31
nan nan nan nan nan nan nan nan nan nan nan nan nan nan nan nan nan nan nan nan nan nan nan nan nan 31 31 30 29 30 31 33 33 32 31 nan nan 21 24 30 32 33 32
nan nan nan nan nan nan nan nan nan nan nan nan nan nan nan nan nan nan nan nan nan nan nan nan nan nan nan 37 39 38 36 36 36 39 38 34 nan 29 25 30 31 29 28
nan nan nan nan nan nan nan nan nan nan nan nan nan nan nan nan nan nan nan nan nan nan nan nan nan nan nan nan 42 44 45 44 41 40 42 41 35 35 35 31 31 30 29
nan nan nan nan nan nan nan nan nan nan nan nan nan nan nan nan nan nan nan nan nan nan nan nan nan nan nan nan nan nan nan 48 49 nan 47 47 46 44 41 33 30 33 34
nan nan nan nan nan nan nan nan nan nan nan nan nan nan nan nan nan nan nan nan nan nan nan nan nan nan nan nan nan nan nan nan nan nan 51 52 52 52 49 42 39 36 34
nan nan nan nan nan nan nan nan nan nan nan nan nan nan nan nan nan nan nan nan nan nan nan nan nan nan nan nan nan nan nan nan nan nan nan 53 52 54 55 52 47 44 41
nan nan nan nan nan nan nan nan nan nan nan nan nan nan nan nan nan nan nan nan nan nan nan nan nan nan nan nan nan nan nan nan nan nan nan nan nan 54 53 51 52 55 47
nan nan nan nan nan nan nan nan nan nan nan nan nan nan nan nan nan nan nan nan nan nan nan nan nan nan nan nan nan nan nan nan nan nan nan nan nan nan nan nan nan 56 55
nan nan nan nan nan nan nan nan nan nan nan nan nan nan nan nan nan nan nan nan nan nan nan nan nan nan nan nan nan nan nan nan nan nan nan nan nan nan nan nan nan nan nan
nan nan nan nan nan nan nan nan nan nan nan nan nan nan nan nan nan nan nan nan nan nan nan nan nan nan nan nan nan nan nan nan nan nan nan nan nan nan nan nan nan nan nan
nan nan nan nan nan nan nan nan nan nan nan nan nan nan nan nan nan nan nan nan nan nan nan nan nan nan nan nan nan nan nan nan nan nan nan nan nan nan nan nan nan nan nan
nan nan nan nan nan nan nan nan nan nan nan nan nan nan nan nan nan nan nan nan nan nan nan nan nan nan nan nan nan nan nan nan nan nan nan nan nan nan nan nan nan nan nan
nan nan nan nan nan nan nan nan nan nan nan nan nan nan nan nan nan nan nan nan nan nan nan nan nan nan nan nan nan nan nan nan nan nan nan nan nan nan nan nan nan nan nan
Wind_Direction
247 232 301 322 317 310 299 289 277 278 277 282 280 271 264 262 263 267 271 nan nan nan nan nan 258 256 267 273 270 269 268 273 281 281 279 278 nan nan nan 239 279 248 nan
242 235 270 297 304 309 309 296 295 293 291 291 292 294 295 283 273 270 270 nan nan nan nan nan nan 269 264 265 268 267 264 267 277 290 299 297 nan nan nan nan nan 259 255
227 221 237 269 281 288 298 306 307 313 312 306 304 302 300 300 295 294 nan nan nan nan 268 268 270 269 273 273 272 270 267 263 268 276 nan nan nan nan nan nan nan nan nan
236 225 235 247 253 255 263 281 302 317 320 318 317 313 310 308 306 299 298 nan 293 289 277 274 275 273 271 270 nan nan 279 274 263 255 264 nan nan 299 nan nan nan nan nan
241 230 239 249 251 252 253 255 261 273 293 308 309 307 306 305 303 303 306 308 301 290 285 298 295 289 277 273 nan nan nan 280 276 nan nan nan 277 288 nan nan nan nan nan
nan 246 247 251 254 255 254 255 258 262 266 271 286 303 302 304 305 304 301 301 299 295 297 285 299 296 291 285 282 278 275 nan nan nan nan nan 283 292 290 nan nan nan nan
nan nan nan nan 263 265 267 268 267 266 268 269 269 276 287 294 301 301 299 294 294 291 288 286 285 291 289 287 284 282 277 281 270 nan nan nan 281 292 289 nan nan nan nan
nan nan nan nan nan nan nan nan nan nan 274 275 276 277 279 281 286 291 297 296 295 293 288 283 279 282 287 286 283 282 279 276 nan nan nan nan 277 289 287 285 nan nan nan
nan nan nan nan nan nan nan nan nan nan nan nan nan nan nan 283 282 288 290 293 295 294 292 290 285 280 282 284 282 279 276 274 275 nan nan nan 276 292 296 292 nan nan nan
nan nan nan nan nan nan nan nan nan nan nan nan nan nan nan nan nan nan 288 288 288 289 291 290 288 286 285 284 284 283 nan nan nan nan nan nan nan nan 298 294 291 nan nan
nan nan nan nan nan nan nan nan nan nan nan nan nan nan nan nan nan nan nan 284 282 285 289 296 294 293 291 288 286 287 285 nan nan nan nan nan nan nan 290 291 290 290 nan
nan nan nan nan nan nan nan nan nan nan nan nan nan nan nan nan nan nan nan nan nan nan 299 294 303 307 297 286 286 293 286 285 nan nan nan nan nan nan 294 296 292 289 287
nan nan nan nan nan nan nan nan nan nan nan nan nan nan nan nan nan nan nan nan nan nan nan 287 284 284 288 288 289 290 292 293 290 nan nan nan nan 286 296 296 296 296 295
nan nan nan nan nan nan nan nan nan nan nan nan nan nan nan nan nan nan nan nan nan nan nan nan nan 286 289 288 286 286 291 292 289 287 288 nan nan 301 308 305 300 296 293
nan nan nan nan nan nan nan nan nan nan nan nan nan nan nan nan nan nan nan nan nan nan nan nan nan nan nan 284 284 284 282 282 286 283 280 292 nan 296 299 302 303 303 302
nan nan nan nan nan nan nan nan nan nan nan nan nan nan nan nan nan nan nan nan nan nan nan nan nan nan nan nan 280 282 283 280 275 273 274 274 277 281 291 291 292 295 293
nan nan nan nan nan nan nan nan nan nan nan nan nan nan nan nan nan nan nan nan nan nan nan nan nan nan nan nan nan nan nan 277 276 nan 270 267 266 271 277 280 281 288 289
nan nan nan nan nan nan nan nan nan nan nan nan nan nan nan nan nan nan nan nan nan nan nan nan nan nan nan nan nan nan nan nan nan nan 269 268 266 264 264 270 274 270 273
nan nan nan nan nan nan nan nan nan nan nan nan nan nan nan nan nan nan nan nan nan nan nan nan nan nan nan nan nan nan nan nan nan nan nan 268 268 267 265 264 267 270 269
nan nan nan nan nan nan nan nan nan nan nan nan nan nan nan nan nan nan nan nan nan nan nan nan nan nan nan nan nan nan nan nan nan nan nan nan nan 268 270 270 268 265 266
nan nan nan nan nan nan nan nan nan nan nan nan nan nan nan nan nan nan nan nan nan nan nan nan nan nan nan nan nan nan nan nan nan nan nan nan nan nan nan nan nan 264 263
nan nan nan nan nan nan nan nan nan nan nan nan nan nan nan nan nan nan nan nan nan nan nan nan nan nan nan nan nan nan nan nan nan nan nan nan nan nan nan nan nan nan nan
nan nan nan nan nan nan nan nan nan nan nan nan nan nan nan nan nan nan nan nan nan nan nan nan nan nan nan nan nan nan nan nan nan nan nan nan nan nan nan nan nan nan nan
nan nan nan nan nan nan nan nan nan nan nan nan nan nan nan nan nan nan nan nan nan nan nan nan nan nan nan nan nan nan nan nan nan nan nan nan nan nan nan nan nan nan nan
nan nan nan nan nan nan nan nan nan nan nan nan nan nan nan nan nan nan nan nan nan nan nan nan nan nan nan nan nan nan nan nan nan nan nan nan nan nan nan nan nan nan nan
nan nan nan nan nan nan nan nan nan nan nan nan nan nan nan nan nan nan nan nan nan nan nan nan nan nan nan nan nan nan nan nan nan nan nan nan nan nan nan nan nan nan nan